Change the Weather History Date:

Saturday, August 31, 2013

  Actual Average Record
Temperature  
Mean Temperature 79 °F 67 °F  
Max Temperature 87 °F 78 °F 95 °F (1953)
Min Temperature 70 °F 57 °F 41 °F (1934)
Degree Days  
Heating Degree Days 0 1  
Month to date heating degree days 8 14  
Since 1 June heating degree days 30 80  
Since 1 July heating degree days 9 26  
Cooling Degree Days 14 4  
Month to date cooling degree days 173 164  
Year to date cooling degree days 702 524  
Since 1 June cooling degree days 638 487  
Growing Degree Days 28 (Base 50)    
Moisture  
Dew Point 67 °F    
Average Humidity 68    
Maximum Humidity 84    
Minimum Humidity 51    
Precipitation  
Precipitation T in 0.10 in 2.63 in (1940)
Month to date precipitation 1.43 3.41  
Year to date precipitation 18.35 25.03  
Sea Level Pressure  
Sea Level Pressure 29.82 in    
Wind  
Wind Speed 6 mph (SSW)    
Max Wind Speed 16 mph    
Max Gust Speed 22 mph    
Visibility 8 miles    
Events Rain    
T = Trace of Precipitation, MM = Missing Value Source: NWS Daily Summary

Daily Weather History Graph

Daily Weather History Graph

Search for Another Location

Airport or City:

Trip Planner

Search our weather history database for the weather conditions in past years. The results will help you decide how hot, cold, wet, or windy it might be!

Date:

Astronomy

Aug. 31, 2013 Rise Set
Actual Time 6:28 AM EDT 7:37 PM EDT
Civil Twilight 5:59 AM EDT 8:05 PM EDT
Nautical Twilight 5:25 AM EDT 8:39 PM EDT
Astronomical Twilight 4:50 AM EDT 9:14 PM EDT
Moon 1:53 AM EDT (8/31) 4:35 PM EDT (8/31)
Length of Visible Light 14h 05m
Length of Day
13h 08m
Waning Crescent, 21% of the Moon is Illuminated
Aug 31
Waning Crescent
Sep 5
New
Sep 12
First Quarter
Sep 19
Full
Sep 26
Last Quarter

Hourly Weather History & Observations

Time (EDT) Temp. Heat Index Dew Point Humidity Pressure Visibility Wind Dir Wind Speed Gust Speed Precip Events Conditions
12:54 AM 73.9 °F - 66.0 °F 76% 29.84 in 9.0 mi South 4.6 mph - N/A   Partly Cloudy
1:54 AM 73.0 °F - 66.0 °F 79% 29.84 in 8.0 mi SSW 4.6 mph - N/A   Clear
2:54 AM 73.0 °F - 66.0 °F 79% 29.82 in 8.0 mi SSW 5.8 mph - 0.00 in Rain Light Rain
3:54 AM 73.0 °F - 66.0 °F 79% 29.82 in 8.0 mi SSW 3.5 mph - 0.00 in   Clear
4:54 AM 73.0 °F - 66.0 °F 79% 29.82 in 8.0 mi SSW 3.5 mph - N/A   Overcast
5:54 AM 72.0 °F - 66.0 °F 81% 29.83 in 8.0 mi Calm Calm - N/A   Clear
6:54 AM 71.1 °F - 66.0 °F 84% 29.82 in 6.0 mi Calm Calm - N/A   Haze
7:54 AM 73.0 °F - 66.0 °F 79% 29.83 in 7.0 mi Calm Calm - N/A   Clear
8:54 AM 73.0 °F - 66.9 °F 81% 29.84 in 7.0 mi NNW 3.5 mph - N/A   Scattered Clouds
9:54 AM 73.9 °F - 66.9 °F 79% 29.84 in 7.0 mi Calm Calm - N/A   Clear
10:54 AM 77.0 °F - 66.9 °F 71% 29.84 in 8.0 mi SW 5.8 mph - N/A   Clear
11:54 AM 80.1 °F 82.7 °F 68.0 °F 67% 29.83 in 8.0 mi SW 11.5 mph - N/A   Clear
12:54 PM 82.9 °F 85.8 °F 68.0 °F 60% 29.82 in 8.0 mi SW 11.5 mph 18.4 mph N/A   Partly Cloudy
1:54 PM 84.9 °F 87.6 °F 66.9 °F 55% 29.81 in 8.0 mi SW 10.4 mph 17.3 mph N/A   Partly Cloudy
2:54 PM 86.0 °F 88.8 °F 66.9 °F 53% 29.78 in 9.0 mi SW 11.5 mph - N/A   Partly Cloudy
3:54 PM 84.0 °F 86.3 °F 66.0 °F 55% 29.77 in 9.0 mi SSW 9.2 mph 17.3 mph N/A   Partly Cloudy
4:54 PM 86.0 °F 88.2 °F 66.0 °F 51% 29.77 in 9.0 mi WSW 12.7 mph 18.4 mph N/A   Scattered Clouds
5:54 PM 84.9 °F 86.6 °F 64.9 °F 51% 29.79 in 10.0 mi SW 8.1 mph - N/A   Clear
6:54 PM 82.0 °F 84.5 °F 66.9 °F 60% 29.78 in 8.0 mi SSW 9.2 mph 18.4 mph N/A   Scattered Clouds
7:54 PM 79.0 °F - 68.0 °F 69% 29.79 in 8.0 mi Calm Calm - N/A   Clear
8:54 PM 79.0 °F - 69.1 °F 72% 29.78 in 7.0 mi Variable 6.9 mph - N/A   Clear
9:54 PM 78.1 °F - 70.0 °F 76% 29.84 in 7.0 mi SSW 5.8 mph - N/A   Mostly Cloudy
10:10 PM 78.8 °F - 69.8 °F 74% 29.86 in 8.0 mi SW 4.6 mph - N/A   Mostly Cloudy
10:54 PM 75.9 °F - 68.0 °F 76% 29.83 in 8.0 mi Calm Calm - N/A   Mostly Cloudy
11:09 PM 75.2 °F - 69.8 °F 83% 29.86 in 8.0 mi ENE 3.5 mph - N/A   Partly Cloudy
11:26 PM 75.2 °F - 69.8 °F 83% 29.86 in 8.0 mi ESE 3.5 mph - N/A   Mostly Cloudy
11:37 PM 75.2 °F - 69.8 °F 83% 29.86 in 8.0 mi Calm Calm - 0.00 in Rain Light Rain
11:54 PM 75.0 °F - 70.0 °F 84% 29.82 in 7.0 mi ESE 3.5 mph - 0.00 in   Scattered Clouds